This is the latest recevied weather packets stored in our database for station/object NEWPRT. If no packets are shown the sender has not sent any weather packets the latest 10 day(s).
| Time | Temp. | Humidity | Pressure | Rain* | Wind** | Luminosity | Snow |
|---|---|---|---|---|---|---|---|
| 1777699620 | - | 72% | 1018.6 hPa | 0 mm | - | - | - |
| 1777699295 | - | 72% | 1018.6 hPa | 0 mm | - | - | - |
| 1777698971 | - | 72% | 1018.7 hPa | 0 mm | - | - | - |
| 1777698649 | - | 72% | 1018.5 hPa | 0 mm | - | - | - |
| 1777698326 | - | 70% | 1018.5 hPa | 0 mm | - | - | - |
| 1777698002 | - | 70% | 1018.5 hPa | 0 mm | - | - | - |
| 1777697679 | - | 69% | 1018.5 hPa | 0 mm | - | - | - |
| 1777697356 | - | 71% | 1018.4 hPa | 0 mm | - | - | - |
| 1777697033 | - | 69% | 1018.4 hPa | 0 mm | - | - | - |
| 1777696710 | - | 72% | 1018.3 hPa | 0 mm | - | - | - |
| 1777696387 | - | 71% | 1018.4 hPa | 0 mm | - | - | - |
| 1777696068 | - | 71% | 1018.2 hPa | 0 mm | - | - | - |
| 1777695741 | - | 71% | 1018.3 hPa | 0 mm | - | - | - |
| 1777695418 | - | 72% | 1018.4 hPa | 0 mm | - | - | - |
| 1777695096 | - | 71% | 1018.4 hPa | 0 mm | - | - | - |
| 1777694772 | - | 70% | 1018.3 hPa | 0 mm | - | - | - |
| 1777694449 | - | 71% | 1018.3 hPa | 0 mm | - | - | - |
| 1777694127 | - | 70% | 1018.2 hPa | 0 mm | - | - | - |
| 1777693803 | - | 71% | 1018.2 hPa | 0 mm | - | - | - |
| 1777693480 | - | 72% | 1018.1 hPa | 0 mm | - | - | - |
| 1777693157 | - | 70% | 1018.2 hPa | 0 mm | - | - | - |
| 1777692834 | - | 72% | 1018.2 hPa | 0 mm | - | - | - |
| 1777692511 | - | 72% | 1018.2 hPa | 0 mm | - | - | - |
| 1777692188 | - | 70% | 1018.2 hPa | 0 mm | - | - | - |
| 1777691866 | - | 72% | 1018.3 hPa | 0 mm | - | - | - |
* Rain latest hour (hover to see other rain measurements)
** Current wind speed in m/s (hover to see current wind gust speed)